Edwards AFB North Base, CA

11:30 PM PDT on August 24, 2019 (GMT -0700)
Edwards AFB North Base

Weather History for K9L2 - May, 2019

Change the Weather History Date:

Thursday, May 30, 2019

  Actual Average (WUND) Record (WUND)
Temperature  
Mean Temperature 70 °F -  
Max Temperature 88 °F - - (-1)
Min Temperature 52 °F - - (-1)
Cooling Degree Days 4    
Growing Degree Days 20 (Base 50)    
Moisture  
Dew Point 36 °F    
Average Humidity 32    
Maximum Humidity 63    
Minimum Humidity 10    
Precipitation  
Precipitation 0.00 in - - ()
Sea Level Pressure  
Sea Level Pressure 29.81 in    
Wind  
Wind Speed 6 mph ()    
Max Wind Speed 22 mph    
Max Gust Speed 29 mph    
Visibility 7.2 miles    
Events      
Averages and records for this station are not official NWS values.
T = Trace of Precipitation, MM = Missing Value Source: Averaged Metar Reports

Daily Weather History Graph

Daily Weather History Graph

Search for Another Location

Airport or City:

Astronomy

May. 30, 2019 Rise Set
Actual Time 5:39 AM PDT 7:58 PM PDT
Civil Twilight 5:10 AM PDT 8:27 PM PDT
Nautical Twilight 4:34 AM PDT 9:03 PM PDT
Astronomical Twilight 3:55 AM PDT 9:42 PM PDT
Moon 3:35 AM PDT (5/30) 4:22 PM PDT (5/30)
Length of Visible Light 15h 17m
Length of Day
14h 19m
Waning Crescent, 14% of the Moon is Illuminated
May 30
Waning Crescent
Jun 3
New
Jun 9
First Quarter
Jun 17
Full
Jun 25
Last Quarter

Hourly Weather History & Observations

Time (PDT) Temp. Dew Point Humidity Pressure Visibility Wind Dir Wind Speed Gust Speed Precip Events Conditions
12:58 AM 62.2 °F 46.0 °F 55% 29.82 in 9.0 mi Calm Calm - N/A   Clear
1:58 AM 59.7 °F 42.6 °F 53% 29.81 in 9.0 mi SE 5.8 mph - N/A   Clear
2:58 AM 56.3 °F 39.9 °F 54% 29.82 in 9.0 mi ESE 4.6 mph - N/A   Clear
3:58 AM 55.8 °F 41.2 °F 58% 29.81 in 9.0 mi South 5.8 mph - N/A   Clear
4:58 AM 55.0 °F 39.2 °F 55% 29.83 in 9.0 mi South 6.9 mph - N/A   Clear
5:58 AM 52.5 °F 40.3 °F 63% 29.84 in 8.0 mi Calm Calm - N/A   Clear
6:58 AM 56.1 °F 40.1 °F 55% 29.85 in 8.0 mi Calm Calm - N/A   Clear
7:58 AM 61.0 °F 40.5 °F 47% 29.86 in 9.0 mi SSE 3.5 mph - N/A   Clear
8:58 AM 68.4 °F 44.6 °F 42% 29.87 in 7.0 mi SSE 3.5 mph - N/A   Clear
9:58 AM 73.0 °F 44.4 °F 36% 29.86 in 7.0 mi Calm Calm - N/A   Clear
10:13 AM 73.4 °F 44.6 °F 36% 29.86 in 6.0 mi Calm Calm - N/A   Haze
10:58 AM 78.8 °F 41.7 °F 27% 29.85 in 6.0 mi Calm Calm - N/A   Haze
11:58 AM 82.9 °F 28.8 °F 14% 29.84 in 6.0 mi Calm Calm - N/A   Haze
12:58 PM 84.7 °F 26.1 °F 12% 29.82 in 6.0 mi SE 4.6 mph - N/A   Haze
1:58 PM 85.5 °F 27.0 °F 12% 29.80 in 6.0 mi Calm Calm - N/A   Haze
2:58 PM 87.3 °F 30.0 °F 13% 29.78 in 6.0 mi SW 11.5 mph - N/A   Haze
3:53 PM 86.0 °F 26.6 °F 12% 29.77 in 6.0 mi South 15.0 mph 24.2 mph N/A   Haze
3:58 PM 86.4 °F 27.3 °F 12% 29.78 in 6.0 mi SSW 18.4 mph 24.2 mph N/A   Haze
4:13 PM 86.0 °F 28.4 °F 12% 29.77 in 7.0 mi SSW 20.7 mph 24.2 mph N/A   Clear
4:28 PM 86.0 °F 26.6 °F 12% 29.77 in 6.0 mi SSW 21.9 mph 25.3 mph N/A   Haze
4:58 PM 85.1 °F 25.2 °F 11% 29.76 in 8.0 mi SSW 18.4 mph 25.3 mph N/A   Clear
5:13 PM 84.2 °F 23.0 °F 11% 29.77 in 6.0 mi SSW 20.7 mph 26.5 mph N/A   Haze
5:58 PM 83.1 °F 20.8 °F 10% 29.77 in 6.0 mi SSW 21.9 mph 28.8 mph N/A   Haze
6:58 PM 79.9 °F 30.9 °F 17% 29.78 in 6.0 mi SSW 20.7 mph 25.3 mph N/A   Haze
7:58 PM 74.7 °F 37.6 °F 26% 29.80 in 6.0 mi SW 15.0 mph - N/A   Haze
8:28 PM 71.6 °F 42.8 °F 35% 29.81 in 8.0 mi SW 16.1 mph - N/A   Clear
8:58 PM 70.7 °F 42.1 °F 35% 29.82 in 8.0 mi SW 15.0 mph - N/A   Clear
9:58 PM 68.5 °F 41.2 °F 37% 29.83 in 8.0 mi SSW 11.5 mph - N/A   Clear
10:58 PM 67.5 °F 41.7 °F 39% 29.83 in 8.0 mi SSW 8.1 mph - N/A   Clear
11:58 PM 66.2 °F 44.4 °F 45% 29.83 in 8.0 mi SSW 10.4 mph - N/A   Clear